Temp
70 71 67 69 72 74 75 76 77 76 75 76 76 76 76 76 77 78 78 78 77 78 78 78 77 77 77 77 77 77 76 76 75 76 75 76 77 78 78 78 79 82 78
67 68 67 69 72 74 75 74 77 76 74 75 75 75 75 74 75 76 76 76 77 77 77 77 76 77 77 77 76 76 75 75 74 74 74 74 75 77 77 77 77 79 77
65 67 70 72 73 75 76 74 74 76 74 74 74 74 73 73 74 75 75 75 75 75 76 75 74 75 76 76 75 74 73 73 73 74 76 82 80 77 77 76 76 77 77
64 68 74 73 74 74 73 73 73 74 72 73 72 72 72 73 74 74 74 74 74 73 73 73 73 73 73 73 73 72 72 72 73 75 81 81 80 76 77 77 77 77 77
67 70 74 72 73 72 71 71 73 71 71 71 72 73 74 74 74 74 73 73 72 72 72 72 72 71 71 71 71 71 71 72 73 78 77 78 78 76 75 76 76 75 75
68 72 73 71 72 71 71 68 71 71 70 70 72 73 73 73 73 72 71 71 71 71 71 70 70 70 70 69 69 69 69 71 74 79 80 77 75 74 74 74 74 74 74
64 71 74 71 70 71 70 69 68 70 71 72 72 73 72 72 71 71 70 70 70 70 70 69 69 69 68 68 68 67 67 68 77 77 77 77 75 73 73 73 73 73 73
64 67 70 70 69 70 70 69 69 69 72 72 72 72 71 71 70 69 69 68 68 68 68 68 68 67 67 66 65 64 64 68 74 75 75 75 72 72 72 72 72 73 73
67 66 63 68 68 68 68 68 68 68 70 71 70 70 69 69 68 68 68 67 67 66 66 66 66 65 65 64 63 62 62 64 73 72 75 75 70 71 71 71 72 72 72
65 68 64 59 61 65 66 69 69 69 69 69 68 66 66 66 66 66 65 65 65 65 64 63 64 63 62 61 60 60 61 65 70 70 72 71 69 70 70 70 71 71 71
61 65 65 59 55 58 65 67 67 67 66 63 61 60 62 65 65 65 63 63 63 62 62 61 60 59 59 58 58 58 62 68 69 70 71 66 68 69 70 70 71 71 71
58 61 65 62 56 53 58 61 64 60 61 62 62 61 61 63 64 63 59 59 59 59 59 58 57 57 61 64 64 62 66 66 67 68 69 67 69 70 70 69 69 70 70
61 62 63 63 63 61 57 59 61 62 60 57 57 59 58 55 56 57 57 59 59 57 60 60 61 61 61 62 62 64 63 64 67 68 65 66 68 69 68 67 67 67 67
62 62 63 63 62 63 63 60 61 60 61 60 59 55 57 55 52 53 56 57 58 59 58 60 60 59 58 58 60 61 62 63 65 67 64 63 65 65 65 64 64 64 65
60 61 61 62 62 61 60 60 60 60 60 60 60 60 56 55 56 57 54 53 52 53 55 55 56 57 57 58 59 59 60 62 63 64 63 59 60 61 62 62 62 62 62
61 61 60 60 62 60 59 58 58 59 58 58 58 58 58 60 58 56 57 55 56 57 55 56 57 57 56 58 58 59 59 60 61 61 62 59 57 57 58 58 59 59 60
62 62 59 58 59 59 58 58 57 57 56 56 56 56 56 57 57 57 56 56 56 57 56 58 57 58 57 57 57 57 58 58 58 58 59 59 57 53 53 54 55 56 57
62 60 59 59 56 57 57 57 58 56 57 55 55 56 55 54 55 55 54 54 54 54 56 56 57 56 56 57 57 56 57 57 57 56 57 57 56 57 53 50 51 52 53
62 60 58 58 56 56 55 55 56 55 53 50 50 51 53 53 53 54 53 53 54 53 54 54 53 55 54 55 54 54 55 55 55 56 55 54 53 54 54 51 48 48 49
61 60 58 58 56 56 54 53 53 51 49 49 46 47 50 51 53 53 52 51 53 52 52 53 52 51 51 52 52 52 52 53 54 55 54 54 53 52 53 52 52 52 48
59 59 58 55 55 54 52 51 49 48 48 47 45 46 48 48 49 52 51 51 51 51 51 52 51 51 48 50 53 51 50 51 52 53 54 54 52 52 52 51 52 51 51
57 57 57 55 54 54 53 54 53 52 49 48 44 44 44 45 47 48 50 49 49 49 48 49 50 49 48 48 52 52 49 48 50 51 52 52 52 52 51 50 50 49 49
55 55 56 55 54 53 54 53 50 45 42 41 42 43 42 44 45 46 49 49 48 49 47 47 48 48 47 46 46 50 48 50 49 49 48 51 49 51 51 49 49 48 48
54 54 55 54 53 53 53 50 46 46 43 47 45 42 40 42 42 44 44 47 47 47 46 46 47 47 49 46 46 46 46 46 47 47 48 48 48 48 48 48 48 48 47
51 51 52 52 51 52 50 49 47 46 46 44 40 38 39 39 41 41 42 43 45 46 45 45 44 45 46 47 46 45 44 44 44 45 44 47 48 49 48 47 47 47 47
48 49 50 50 49 50 48 47 45 44 39 38 37 37 36 37 37 38 39 41 41 43 44 44 44 43 44 44 44 43 44 44 43 42 41 42 40 45 46 46 46 47 47
MSLP
1013.37 1013.53 1013.87 1013.71 1013.48 1013.31 1013.26 1013.28 1013.06 1013.08 1013.23 1013.37 1013.42 1013.59 1013.53 1013.87 1013.88 1013.80 1013.75 1014.00 1014.12 1014.13 1014.14 1014.15 1014.29 1014.22 1014.32 1014.32 1014.44 1014.70 1014.77 1014.87 1014.85 1014.82 1014.82 1014.90 1014.78 1014.83 1014.69 1014.50 1014.53 1014.64 1014.88
1013.88 1013.75 1013.66 1013.63 1013.37 1013.18 1013.10 1013.32 1013.03 1013.07 1013.22 1013.46 1013.63 1013.60 1013.59 1014.00 1014.10 1014.30 1014.21 1014.50 1014.37 1014.53 1014.58 1014.62 1014.68 1014.62 1014.71 1014.67 1015.00 1015.17 1015.24 1015.32 1015.35 1015.26 1015.14 1015.16 1015.19 1015.10 1015.12 1015.08 1015.02 1015.09 1015.18
1013.86 1013.66 1013.32 1013.08 1012.88 1012.78 1012.88 1013.29 1013.25 1013.31 1013.50 1013.75 1013.86 1013.89 1013.98 1014.22 1014.20 1014.38 1014.59 1014.72 1014.95 1015.06 1015.14 1015.21 1015.34 1015.31 1015.22 1015.31 1015.46 1015.62 1015.64 1015.72 1015.68 1015.32 1014.94 1014.85 1015.26 1015.38 1015.40 1015.50 1015.54 1015.35 1015.52
1013.85 1013.50 1012.93 1012.58 1012.61 1012.67 1013.05 1013.32 1013.46 1013.79 1014.07 1013.85 1014.16 1014.31 1014.33 1014.25 1014.75 1014.77 1015.21 1015.25 1015.49 1015.70 1015.72 1015.87 1015.93 1015.87 1015.75 1015.91 1016.06 1016.18 1016.14 1016.09 1015.85 1015.31 1015.03 1015.20 1015.66 1016.09 1015.96 1015.84 1015.76 1015.73 1015.76
1013.62 1013.32 1013.04 1012.95 1012.94 1012.98 1013.23 1013.26 1013.58 1013.71 1012.34 1013.26 1014.02 1014.64 1014.70 1014.87 1015.08 1015.51 1015.94 1015.76 1016.04 1016.17 1016.24 1016.30 1016.40 1016.47 1016.43 1016.51 1016.64 1016.75 1016.58 1016.57 1016.24 1015.68 1016.09 1016.05 1016.16 1016.57 1016.47 1016.35 1016.26 1016.26 1016.24
1013.75 1013.27 1013.20 1013.26 1013.26 1013.29 1013.17 1013.32 1013.49 1013.46 1014.03 1014.14 1014.93 1015.11 1015.13 1015.08 1015.61 1016.20 1016.37 1016.43 1016.62 1016.70 1016.85 1016.78 1016.93 1017.03 1017.02 1017.17 1017.26 1017.22 1017.13 1016.98 1016.55 1016.29 1016.24 1016.59 1016.73 1016.99 1016.91 1016.89 1016.81 1016.72 1016.66
1014.06 1013.61 1013.31 1013.55 1013.57 1013.43 1013.10 1013.72 1013.65 1013.92 1015.03 1014.87 1015.13 1015.61 1015.49 1015.68 1016.18 1016.63 1016.84 1017.06 1017.13 1017.12 1017.28 1017.19 1017.32 1017.41 1017.42 1017.61 1017.80 1017.71 1017.74 1017.47 1016.99 1016.96 1016.95 1016.97 1017.32 1017.43 1017.32 1017.26 1017.19 1017.19 1017.14
1014.08 1014.05 1013.65 1013.91 1013.94 1014.00 1013.84 1014.37 1013.98 1014.72 1015.25 1015.63 1015.64 1015.64 1015.72 1016.12 1016.71 1017.16 1017.40 1017.70 1017.73 1017.63 1017.65 1017.69 1017.81 1017.83 1017.96 1018.20 1018.29 1018.26 1018.27 1017.91 1017.50 1017.64 1017.60 1017.60 1018.00 1017.91 1017.84 1017.75 1017.70 1017.62 1017.50
1014.08 1014.25 1014.57 1014.24 1014.61 1014.58 1014.71 1014.86 1014.67 1015.20 1015.90 1015.72 1016.13 1016.04 1016.46 1016.99 1017.53 1017.78 1018.06 1018.15 1018.18 1018.17 1018.20 1018.32 1018.19 1018.31 1018.46 1018.79 1018.92 1018.89 1018.81 1018.59 1018.08 1018.29 1017.96 1018.00 1018.49 1018.28 1018.21 1018.14 1018.08 1017.93 1017.78
1014.55 1014.19 1014.69 1015.12 1015.14 1015.14 1015.31 1015.27 1015.38 1015.57 1016.09 1016.34 1016.77 1016.99 1017.40 1017.95 1018.27 1018.38 1018.62 1018.54 1018.56 1018.67 1018.84 1018.88 1018.84 1018.91 1019.13 1019.30 1019.51 1019.44 1019.24 1018.99 1018.79 1018.72 1018.61 1018.91 1018.92 1018.80 1018.63 1018.44 1018.34 1018.15 1018.07
1014.75 1014.71 1014.78 1015.43 1015.59 1015.76 1015.77 1015.95 1016.19 1016.58 1017.18 1017.63 1017.87 1018.20 1018.41 1018.50 1018.90 1018.80 1019.01 1019.08 1019.28 1019.24 1019.28 1019.35 1019.59 1019.81 1019.81 1019.86 1019.90 1019.87 1019.47 1019.33 1019.18 1019.05 1019.07 1019.42 1019.13 1019.08 1018.95 1018.68 1018.62 1018.47 1018.37
1014.51 1014.79 1014.92 1015.47 1015.87 1016.18 1016.45 1016.93 1017.27 1017.87 1018.11 1018.18 1018.36 1018.52 1018.76 1018.96 1019.15 1019.47 1019.69 1019.86 1019.89 1019.90 1019.81 1019.77 1020.16 1020.24 1019.93 1019.72 1019.81 1019.95 1019.69 1019.78 1019.68 1019.54 1019.67 1019.51 1019.10 1018.97 1018.92 1019.11 1019.02 1018.96 1018.93
1013.98 1014.49 1014.92 1015.19 1015.48 1015.90 1016.49 1016.67 1017.53 1017.91 1018.37 1018.66 1018.59 1018.73 1019.12 1019.84 1020.03 1020.09 1020.22 1020.17 1020.17 1020.41 1020.05 1020.16 1020.07 1020.27 1020.25 1020.04 1020.08 1020.29 1020.39 1020.13 1020.00 1019.94 1020.42 1019.92 1019.49 1019.36 1019.56 1019.79 1019.77 1019.71 1019.64
1013.39 1013.95 1014.57 1015.00 1015.32 1015.60 1016.00 1016.45 1016.88 1017.54 1017.81 1018.11 1018.60 1019.28 1019.31 1019.71 1020.25 1020.24 1020.38 1020.31 1020.40 1020.36 1020.20 1020.18 1020.36 1020.61 1020.58 1020.66 1020.52 1020.58 1020.57 1020.54 1020.38 1020.37 1020.84 1020.59 1020.36 1020.30 1020.47 1020.51 1020.61 1020.42 1020.29
1012.94 1013.50 1014.17 1014.84 1015.28 1015.73 1016.22 1016.55 1016.86 1017.17 1017.60 1018.13 1018.58 1018.88 1019.31 1019.71 1019.65 1019.92 1020.46 1020.49 1020.84 1020.80 1020.60 1020.72 1020.84 1020.71 1020.78 1020.73 1020.93 1021.09 1020.94 1021.02 1020.99 1020.96 1021.31 1021.63 1021.50 1021.34 1021.20 1021.29 1021.32 1021.15 1021.01
1011.91 1012.64 1013.61 1014.16 1014.77 1015.56 1016.13 1016.70 1017.00 1017.54 1017.67 1018.41 1018.80 1019.10 1019.22 1019.46 1019.71 1020.07 1019.99 1020.46 1020.62 1020.70 1020.98 1020.89 1020.84 1020.85 1021.06 1020.90 1021.15 1021.34 1021.50 1021.55 1021.55 1021.62 1021.64 1022.36 1022.33 1022.24 1022.24 1022.20 1022.19 1021.90 1021.56
1011.17 1012.02 1013.01 1013.97 1014.59 1015.16 1015.81 1016.49 1017.10 1017.55 1018.22 1018.70 1019.04 1019.42 1019.75 1019.71 1019.80 1019.80 1020.37 1020.38 1021.03 1020.84 1020.91 1020.93 1021.08 1020.97 1021.16 1021.39 1021.45 1021.54 1021.81 1021.92 1021.93 1022.10 1022.33 1022.58 1022.75 1023.08 1023.30 1022.91 1022.74 1022.62 1022.30
1010.75 1011.70 1012.98 1013.68 1014.48 1015.10 1015.68 1016.24 1016.84 1017.63 1018.10 1018.62 1019.02 1019.37 1019.95 1020.12 1020.14 1020.28 1020.59 1020.96 1021.27 1021.07 1021.36 1021.08 1021.07 1021.13 1021.47 1021.48 1021.56 1021.55 1021.78 1022.14 1022.19 1022.55 1022.65 1022.73 1022.94 1022.74 1023.36 1023.82 1023.36 1023.13 1022.97
1010.39 1011.18 1012.15 1013.18 1014.13 1014.95 1015.69 1016.28 1016.69 1017.41 1018.08 1018.75 1019.08 1019.42 1019.68 1020.08 1020.38 1020.54 1020.84 1021.12 1021.28 1021.48 1021.46 1021.59 1021.67 1021.61 1021.55 1021.87 1021.88 1021.80 1021.82 1022.17 1022.55 1022.88 1022.87 1023.22 1023.28 1023.35 1023.30 1023.81 1023.88 1023.45 1023.48
1009.93 1010.65 1011.51 1012.29 1013.23 1014.39 1015.59 1016.39 1017.05 1017.93 1018.55 1019.02 1019.52 1019.74 1020.02 1020.08 1020.31 1020.62 1021.20 1021.52 1021.61 1021.42 1021.69 1021.87 1021.93 1022.14 1021.93 1021.99 1021.84 1022.05 1022.34 1022.55 1022.63 1022.76 1023.03 1023.40 1023.34 1023.56 1023.34 1023.80 1023.60 1023.19 1023.58
1009.71 1010.50 1011.06 1011.91 1012.79 1013.72 1014.52 1015.44 1016.57 1017.37 1018.36 1019.10 1019.64 1020.07 1020.33 1020.31 1020.40 1020.55 1020.98 1021.21 1021.68 1021.73 1021.95 1022.01 1022.10 1021.87 1022.04 1022.02 1021.91 1022.00 1022.50 1022.59 1022.60 1022.88 1023.23 1023.33 1023.58 1023.63 1023.43 1023.85 1023.61 1023.35 1023.25
1009.46 1010.13 1010.98 1011.87 1012.67 1013.43 1014.08 1014.74 1015.69 1016.88 1018.08 1018.73 1019.54 1020.04 1020.38 1020.42 1020.41 1020.71 1020.88 1021.23 1021.65 1021.88 1022.07 1022.21 1022.32 1022.27 1022.29 1022.38 1022.07 1021.69 1021.65 1022.32 1022.37 1022.71 1023.47 1023.27 1023.50 1023.54 1023.26 1023.63 1023.49 1023.50 1023.48
1009.31 1010.10 1010.88 1011.77 1012.63 1013.32 1014.17 1015.00 1015.83 1017.09 1018.35 1019.04 1019.53 1019.91 1020.39 1020.40 1020.63 1020.91 1021.10 1021.32 1021.87 1021.84 1021.98 1022.45 1022.53 1022.33 1022.36 1022.86 1023.12 1021.84 1021.20 1020.82 1021.78 1022.68 1023.02 1023.00 1023.37 1023.29 1023.16 1023.43 1023.46 1023.63 1023.57
1009.59 1010.23 1010.71 1011.61 1012.68 1013.51 1014.08 1014.67 1015.52 1015.84 1016.62 1017.25 1018.32 1019.52 1020.38 1020.81 1021.13 1021.41 1021.65 1021.75 1021.91 1022.13 1022.38 1022.64 1023.01 1022.82 1022.73 1022.74 1022.94 1022.60 1022.31 1022.27 1021.86 1021.98 1022.66 1023.05 1023.40 1023.27 1023.32 1023.46 1023.54 1023.46 1023.36
1010.18 1010.55 1010.94 1011.36 1012.32 1013.15 1013.95 1014.55 1015.17 1015.78 1016.48 1017.30 1018.62 1019.55 1020.23 1020.66 1021.11 1021.47 1021.57 1021.68 1021.98 1022.31 1022.58 1022.76 1023.01 1023.02 1023.28 1023.03 1022.86 1022.84 1022.84 1023.03 1023.12 1022.88 1022.28 1022.40 1022.85 1023.07 1023.22 1023.42 1023.34 1023.23 1023.19
1011.00 1011.08 1011.30 1011.69 1012.05 1012.61 1013.55 1014.12 1014.73 1015.50 1016.64 1017.69 1018.67 1019.39 1020.22 1020.76 1021.33 1021.75 1021.84 1021.82 1022.10 1022.34 1022.44 1022.77 1023.23 1023.35 1023.39 1023.28 1023.23 1023.28 1023.19 1023.14 1023.37 1023.61 1023.43 1023.02 1023.07 1022.79 1023.07 1023.19 1023.06 1023.04 1023.08
Wind_Speed
2 1 4 7 9 7 9 10 12 13 14 14 16 16 16 12 12 13 14 14 17 16 17 17 16 17 17 18 21 19 19 18 18 17 16 15 16 17 16 13 13 15 17
2 4 6 9 11 9 12 12 13 15 15 15 16 18 19 16 15 16 17 16 19 17 17 17 16 16 15 18 18 17 18 17 15 10 16 16 15 16 15 16 14 15 16
1 3 5 10 14 13 14 11 12 13 15 17 19 19 18 16 17 18 19 19 19 17 16 17 15 13 16 17 18 17 17 16 12 6 7 13 15 17 18 15 14 15 15
1 4 3 10 6 10 9 9 11 11 15 22 20 19 19 18 17 18 17 18 18 17 17 17 15 16 17 17 17 16 17 17 11 7 11 12 14 17 16 17 18 16 15
2 1 9 15 16 15 12 14 11 18 24 20 21 19 19 19 18 17 16 17 16 16 16 16 16 16 17 17 16 16 17 16 10 13 13 12 10 14 17 17 17 18 18
3 2 10 13 13 15 19 18 18 24 22 21 17 18 19 19 19 16 16 16 16 16 15 16 16 16 17 16 16 16 15 12 9 11 11 12 12 14 14 15 15 15 15
3 3 9 11 12 15 18 20 16 22 19 20 18 18 19 19 18 16 16 15 15 15 15 16 16 16 16 16 15 15 14 12 10 10 10 11 11 12 13 14 14 14 14
5 4 7 11 13 15 17 16 20 17 14 16 17 19 18 18 17 15 15 14 14 15 15 16 15 16 16 15 15 15 13 8 8 9 8 9 9 10 11 11 11 11 12
7 7 6 9 10 14 15 17 20 16 12 14 16 18 18 16 15 15 14 14 14 14 15 15 16 16 16 15 14 14 14 12 8 6 6 6 8 9 10 10 10 10 11
6 8 8 6 7 6 7 13 16 17 17 15 17 17 16 15 14 15 14 14 15 15 14 14 15 16 15 14 13 12 10 9 8 6 7 6 8 8 8 9 9 10 11
7 8 9 8 6 7 8 10 13 16 16 18 16 16 11 8 9 11 13 14 13 14 14 15 14 13 14 14 13 11 8 5 6 5 5 6 6 7 8 10 10 10 10
12 11 11 12 10 8 7 9 10 9 7 7 9 10 7 7 7 9 12 13 13 14 14 15 12 9 6 5 5 6 5 6 5 5 5 4 8 11 13 14 14 14 14
14 11 12 13 13 13 9 7 6 5 6 6 9 7 9 6 5 5 4 4 6 5 5 6 6 5 7 5 5 5 5 6 5 5 7 10 10 14 14 14 13 14 13
19 16 13 13 13 13 9 8 8 6 6 6 7 8 6 5 6 5 3 5 4 4 6 5 5 5 7 7 7 6 6 5 5 4 8 14 15 14 14 13 12 12 11
19 18 17 14 13 11 10 8 7 7 6 7 7 8 6 6 6 6 5 5 4 4 5 5 4 5 5 7 6 6 7 7 7 4 7 15 13 13 14 15 14 13 12
19 20 18 16 14 12 9 10 8 7 8 7 6 6 7 6 6 6 5 5 4 4 4 4 4 5 4 5 6 6 6 6 7 7 5 8 13 14 14 13 12 12 11
18 19 19 17 14 13 11 9 7 7 7 7 6 7 7 6 6 6 5 5 4 5 5 4 5 4 4 4 6 5 5 6 6 6 5 4 6 12 13 13 13 12 12
16 19 18 15 16 14 12 10 8 8 7 7 6 6 7 7 7 6 5 5 4 4 3 3 3 4 4 3 4 4 5 5 6 6 5 4 4 4 6 13 12 12 12
16 18 20 18 18 16 13 10 9 10 7 6 6 6 8 8 7 6 5 5 5 4 4 3 4 3 3 3 3 4 4 4 5 3 6 5 6 5 4 7 8 10 13
17 18 19 17 20 18 12 10 8 8 7 7 6 6 9 8 9 7 6 6 4 4 4 4 5 4 4 3 4 4 3 3 3 3 4 3 5 4 6 7 6 6 9
16 17 19 20 20 15 13 12 10 10 8 7 6 9 9 8 9 9 6 7 5 4 4 3 3 4 5 3 2 3 3 4 4 3 2 1 2 3 5 5 4 5 5
15 16 17 18 18 14 12 11 8 10 7 7 7 8 7 8 8 7 8 7 6 5 5 4 2 3 4 4 2 2 4 5 4 3 3 2 2 3 4 6 6 7 6
12 14 15 17 18 16 15 10 8 9 7 6 7 7 7 8 8 8 8 6 6 4 5 4 3 1 3 3 3 3 3 1 1 3 4 2 3 3 6 5 7 6 6
6 9 12 15 16 15 17 14 17 11 12 10 10 8 7 8 8 8 7 7 6 4 5 5 3 3 2 3 2 4 5 4 1 3 3 3 3 5 5 4 5 5 6
1 6 10 14 15 16 16 14 11 10 6 7 8 13 10 8 9 9 7 8 8 5 5 6 5 5 2 2 2 2 3 3 2 2 4 2 4 1 4 5 4 4 5
4 4 8 12 15 17 15 13 13 12 12 10 11 9 7 6 7 8 7 6 6 7 7 6 5 5 4 4 3 3 2 1 1 2 3 4 6 5 5 4 4 4 4
Wind_Direction
140 358 306 278 257 228 214 203 175 171 161 152 143 132 119 119 117 106 110 111 99 91 82 82 76 88 95 96 90 87 83 81 81 83 80 75 81 80 74 67 75 73 68
339 326 288 265 262 237 210 215 193 171 157 147 136 120 110 108 107 103 99 96 93 86 81 79 72 73 84 93 89 87 84 78 78 81 106 92 80 81 75 67 69 78 74
270 305 277 262 236 219 207 214 203 181 161 142 124 110 104 104 99 87 84 86 84 82 82 79 75 84 92 92 87 79 78 74 65 58 96 86 74 69 74 80 71 79 77
312 307 90 63 191 210 213 211 205 181 167 135 122 115 107 99 91 87 88 89 87 85 85 83 81 72 79 82 81 79 75 73 56 58 62 70 74 65 65 64 69 69 74
79 41 94 91 90 90 63 349 186 128 99 97 104 106 105 105 98 101 99 92 94 92 91 89 84 80 81 82 80 76 73 72 62 77 72 69 76 63 61 55 57 54 52
60 87 113 103 100 90 88 58 147 113 102 102 110 110 107 101 99 98 94 94 94 93 90 89 86 84 82 81 77 72 69 65 71 75 82 75 68 62 59 57 55 50 50
97 81 119 114 115 108 97 95 72 87 109 111 112 110 106 104 103 99 96 96 96 94 92 89 86 84 81 78 75 72 69 55 76 72 67 69 64 61 62 62 60 58 53
116 74 110 114 109 110 109 112 98 89 98 111 111 105 99 99 101 100 98 97 98 95 90 89 86 84 80 77 72 67 61 49 72 70 64 68 59 61 60 60 62 64 64
138 110 50 84 102 104 111 117 115 114 107 103 106 98 99 103 107 105 105 104 96 92 89 87 87 83 81 74 70 69 66 52 67 63 53 52 48 61 62 63 62 63 64
144 132 111 63 84 94 114 113 118 123 127 117 105 101 101 101 105 106 103 96 97 95 92 85 85 84 81 79 70 69 70 66 73 64 56 44 39 51 58 64 63 65 65
163 152 137 114 88 76 99 99 104 112 115 105 100 99 108 114 115 101 92 96 94 96 92 88 85 86 87 75 66 60 64 57 61 57 58 44 60 61 63 72 73 74 75
181 170 158 146 132 110 119 103 115 112 114 128 131 126 116 118 109 98 97 94 91 88 87 86 81 82 77 69 76 61 63 75 64 53 52 44 92 91 80 64 56 55 57
187 180 175 165 153 146 145 139 143 151 143 142 129 134 124 121 123 121 124 120 109 109 99 95 89 63 67 65 70 72 68 72 84 72 44 43 61 75 71 61 60 51 46
187 188 181 173 165 159 154 153 152 158 154 146 145 137 145 140 131 120 106 106 106 89 89 76 81 90 82 72 73 79 78 82 85 82 62 56 61 65 65 62 56 55 55
192 188 184 179 176 164 163 158 158 154 157 148 155 155 152 149 141 127 133 109 99 90 84 87 88 86 84 77 72 74 75 83 93 87 83 59 64 66 62 52 44 37 33
195 190 182 182 181 170 169 163 157 159 144 155 156 156 152 150 143 141 119 114 104 97 102 94 90 91 86 84 84 80 81 86 90 91 84 75 60 60 54 44 34 31 29
198 185 184 181 177 174 166 161 154 152 154 154 150 149 152 146 135 127 127 118 115 101 95 99 90 94 101 101 101 106 97 87 88 90 93 86 97 63 46 39 28 24 18
194 190 183 178 176 175 170 164 161 159 161 154 151 147 150 140 138 132 127 115 115 103 94 86 68 83 80 106 116 113 121 107 98 93 88 84 68 55 50 24 24 22 10
204 188 185 180 179 172 168 166 161 164 155 148 146 152 152 139 133 122 112 110 115 104 88 87 78 51 83 104 106 108 121 121 116 133 109 91 75 52 27 20 12 22 7
203 196 190 181 176 172 164 160 157 158 155 155 154 153 157 150 143 131 128 124 124 115 113 111 109 84 72 87 108 111 126 122 122 122 112 94 75 40 30 4 350 4 358
203 201 193 186 181 171 170 167 165 171 163 157 154 156 156 149 146 142 136 129 130 114 103 111 102 96 72 60 151 120 130 148 141 124 160 67 42 12 17 354 353 349 343
205 203 199 195 184 182 175 170 165 166 169 157 148 149 151 144 144 146 143 138 138 131 110 90 158 135 83 31 253 228 182 165 204 199 226 219 297 321 347 352 350 351 340
203 203 202 199 190 184 178 165 144 119 126 149 162 149 156 148 152 142 142 136 135 130 110 95 79 173 145 99 46 308 183 133 167 159 213 227 296 319 343 344 341 338 335
216 201 199 197 190 191 182 172 175 180 171 176 164 152 149 151 146 147 139 141 131 127 134 120 112 99 229 145 132 54 57 28 255 196 171 199 286 310 334 331 329 333 339
240 197 197 190 190 190 189 190 184 172 158 136 140 148 151 147 148 151 146 144 144 144 136 136 138 124 106 118 84 130 80 66 55 298 278 215 300 303 319 319 311 318 329
22 196 194 194 193 190 188 191 184 170 150 150 155 153 152 146 147 155 151 147 145 150 148 140 135 132 129 123 117 105 95 73 137 273 277 299 305 308 306 295 287 312 312